| time (UTC) | temp F | wind direction | speed MPH | gust MPH | rain 1hr in | rain 24hr in | rain mn in | humidity % | barometer mb |
| 20260905064005 | 53 | 301 | 6.0 | 13.0 | 0.00 | 0.00 | 0.00 | 79 | 1017.0 |
| 20260905063507 | 53 | 312 | 7.0 | 14.0 | 0.00 | 0.00 | 0.00 | 79 | 1017.1 |
| 20260905063005 | 53 | 312 | 9.0 | 13.0 | 0.00 | 0.00 | 0.00 | 79 | 1017.0 |
| 20260905060507 | 55 | 262 | 8.0 | 13.0 | 0.00 | 0.00 | 0.00 | 78 | 1017.5 |
| 20260905060006 | 55 | 268 | 7.0 | 15.0 | 0.00 | 0.00 | 0.00 | 78 | 1017.4 |
| 20260905054006 | 56 | 278 | 9.0 | 18.0 | 0.00 | 0.00 | 0.00 | 76 | 1017.6 |
| 20260905053507 | 57 | 282 | 6.0 | 15.0 | 0.00 | 0.00 | 0.00 | 75 | 1017.4 |
| 20260905051005 | 58 | 274 | 7.0 | 17.0 | 0.00 | 0.00 | 0.00 | 74 | 1017.5 |
| 20260905050507 | 58 | 257 | 9.0 | 16.0 | 0.00 | 0.00 | 0.00 | 74 | 1017.4 |
| 20260905045506 | 58 | 253 | 13.0 | 17.0 | 0.00 | 0.00 | 0.00 | 74 | 1017.2 |
| 20260905045007 | 59 | 258 | 12.0 | 18.0 | 0.00 | 0.00 | 0.00 | 73 | 1017.2 |
| 20260905044505 | 59 | 265 | 9.0 | 18.0 | 0.00 | 0.01 | 0.00 | 72 | 1017.4 |
| 20260905044006 | 59 | 275 | 9.0 | 20.0 | 0.00 | 0.02 | 0.00 | 72 | 1017.5 |
| 20260905042505 | 60 | 274 | 10.0 | 21.0 | 0.00 | 0.02 | 0.00 | 71 | 1017.7 |
| 20260905041006 | 60 | 259 | 9.0 | 18.0 | 0.00 | 0.02 | 0.00 | 71 | 1017.6 |
| 20260905035505 | 61 | 268 | 10.0 | 22.0 | 0.00 | 0.02 | 0.00 | 69 | 1017.5 |
| 20260905035007 | 61 | 282 | 10.0 | 18.0 | 0.00 | 0.02 | 0.00 | 68 | 1017.6 |
| 20260905034006 | 62 | 262 | 10.0 | 20.0 | 0.00 | 0.03 | 0.00 | 68 | 1017.9 |
| 20260905033007 | 62 | 247 | 11.0 | 20.0 | 0.00 | 0.03 | 0.00 | 69 | 1017.9 |
| 20260905032506 | 62 | 272 | 11.0 | 18.0 | 0.00 | 0.03 | 0.00 | 68 | 1017.8 |
| 20260905032006 | 62 | 260 | 12.0 | 21.0 | 0.00 | 0.03 | 0.00 | 66 | 1017.8 |
| 20260905031505 | 62 | 251 | 11.0 | 20.0 | 0.00 | 0.03 | 0.00 | 67 | 1018.0 |
| 20260905031007 | 63 | 249 | 10.0 | 20.0 | 0.00 | 0.03 | 0.00 | 67 | 1018.0 |
| 20260905030006 | 63 | 269 | 12.0 | 23.0 | 0.00 | 0.04 | 0.00 | 66 | 1017.9 |
| 20260905025506 | 63 | 281 | 9.0 | 20.0 | 0.00 | 0.04 | 0.00 | 65 | 1018.0 |
| 20260905023006 | 64 | 278 | 9.0 | 18.0 | 0.00 | 0.04 | 0.00 | 65 | 1018.2 |
| 20260905022006 | 64 | 272 | 14.0 | 23.0 | 0.00 | 0.04 | 0.00 | 67 | 1018.1 |
| 20260905021505 | 64 | 293 | 10.0 | 23.0 | 0.00 | 0.04 | 0.00 | 66 | 1018.0 |
| 20260905021006 | 64 | 264 | 13.0 | 20.0 | 0.00 | 0.04 | 0.00 | 67 | 1017.9 |
| 20260905015005 | 64 | 307 | 10.0 | 22.0 | 0.00 | 0.04 | 0.00 | 69 | 1018.0 |
| 20260905014505 | 64 | 268 | 9.0 | 21.0 | 0.00 | 0.05 | 0.00 | 69 | 1018.2 |
| 20260905014007 | 64 | 274 | 10.0 | 23.0 | 0.00 | 0.05 | 0.00 | 68 | 1018.2 |
| 20260905013005 | 64 | 295 | 10.0 | 18.0 | 0.00 | 0.06 | 0.00 | 68 | 1018.1 |
| 20260905012005 | 64 | 296 | 7.0 | 20.0 | 0.00 | 0.07 | 0.00 | 69 | 1018.3 |
| 20260905011505 | 64 | 247 | 12.0 | 20.0 | 0.00 | 0.07 | 0.00 | 70 | 1018.4 |
| 20260905010505 | 64 | 289 | 11.0 | 21.0 | 0.00 | 0.07 | 0.00 | 70 | 1018.5 |
| 20260905005507 | 64 | 280 | 9.0 | 20.0 | 0.00 | 0.07 | 0.00 | 70 | 1018.6 |
| 20260905002005 | 64 | 293 | 11.0 | 22.0 | 0.00 | 0.07 | 0.00 | 72 | 1019.1 |
| 20260905001006 | 64 | 289 | 8.0 | 21.0 | 0.00 | 0.07 | 0.00 | 70 | 1019.2 |
| 20260905000505 | 64 | 281 | 7.0 | 18.0 | 0.00 | 0.07 | 0.00 | 70 | 1019.2 |
| 20260904235005 | 64 | 290 | 10.0 | 20.0 | 0.00 | 0.07 | 0.00 | 71 | 1019.2 |
| 20260904234005 | 64 | 262 | 9.0 | 18.0 | 0.00 | 0.07 | 0.00 | 71 | 1019.3 |
| 20260904233506 | 64 | 299 | 11.0 | 18.0 | 0.00 | 0.07 | 0.00 | 71 | 1019.5 |
| 20260904232504 | 64 | 299 | 8.0 | 18.0 | 0.00 | 0.07 | 0.00 | 71 | 1019.5 |
| 20260904231005 | 63 | 301 | 9.0 | 21.0 | 0.00 | 0.07 | 0.00 | 71 | 1019.3 |
| 20260904225006 | 63 | 291 | 7.0 | 16.0 | 0.00 | 0.07 | 0.00 | 72 | 1019.5 |
| 20260904223505 | 62 | 280 | 7.0 | 16.0 | 0.00 | 0.07 | 0.00 | 72 | 1019.5 |
| 20260904223006 | 62 | 303 | 8.0 | 18.0 | 0.00 | 0.07 | 0.00 | 72 | 1019.7 |
| 20260904222504 | 62 | 268 | 7.0 | 15.0 | 0.00 | 0.07 | 0.00 | 72 | 1019.5 |
| 20260904222006 | 62 | 265 | 7.0 | 16.0 | 0.00 | 0.07 | 0.00 | 71 | 1019.5 |
| 20260904221506 | 62 | 274 | 6.0 | 15.0 | 0.00 | 0.07 | 0.00 | 73 | 1019.5 |
| 20260904220005 | 61 | 277 | 7.0 | 20.0 | 0.00 | 0.07 | 0.00 | 72 | 1019.5 |
| 20260904215506 | 61 | 245 | 13.0 | 18.0 | 0.00 | 0.07 | 0.00 | 75 | 1019.6 |
| 20260904214006 | 60 | 304 | 7.0 | 13.0 | 0.00 | 0.07 | 0.00 | 75 | 1019.4 |
| 20260904213504 | 60 | 276 | 7.0 | 15.0 | 0.00 | 0.07 | 0.00 | 74 | 1019.6 |
| 20260904213005 | 59 | 251 | 10.0 | 14.0 | 0.00 | 0.07 | 0.00 | 71 | 1019.7 |
| 20260904210505 | 59 | 253 | 10.0 | 18.0 | 0.00 | 0.07 | 0.00 | 75 | 1019.7 |
| 20260904204507 | 58 | 269 | 7.0 | 14.0 | 0.00 | 0.07 | 0.00 | 78 | 1019.7 |
| 20260904203505 | 57 | 241 | 8.0 | 18.0 | 0.00 | 0.07 | 0.00 | 77 | 1019.4 |
| 20260904202506 | 57 | 252 | 10.0 | 15.0 | 0.00 | 0.07 | 0.00 | 78 | 1019.3 |
| 20260904201506 | 56 | 254 | 7.0 | 14.0 | 0.00 | 0.07 | 0.00 | 80 | 1019.4 |
| 20260904201004 | 56 | 256 | 7.0 | 18.0 | 0.00 | 0.07 | 0.00 | 79 | 1019.3 |
| 20260904200505 | 55 | 254 | 9.0 | 16.0 | 0.00 | 0.07 | 0.00 | 80 | 1019.2 |
| 20260904200006 | 55 | 250 | 10.0 | 17.0 | 0.00 | 0.07 | 0.00 | 80 | 1019.0 |
| 20260904195505 | 54 | 247 | 12.0 | 18.0 | 0.00 | 0.07 | 0.00 | 80 | 1018.9 |
| 20260904195005 | 54 | 246 | 12.0 | 17.0 | 0.00 | 0.07 | 0.00 | 81 | 1018.8 |
| 20260904194505 | 54 | 248 | 10.0 | 15.0 | 0.00 | 0.07 | 0.00 | 81 | 1018.8 |
| 20260904193504 | 54 | 240 | 12.0 | 18.0 | 0.00 | 0.07 | 0.00 | 84 | 1018.6 |
| 20260904192506 | 54 | 245 | 13.0 | 17.0 | 0.00 | 0.07 | 0.00 | 85 | 1018.3 |
| 20260904191504 | 53 | 256 | 8.0 | 13.0 | 0.00 | 0.07 | 0.00 | 83 | 1018.4 |
| 20260904191005 | 53 | 248 | 9.0 | 13.0 | 0.00 | 0.07 | 0.00 | 83 | 1018.2 |
| 20260904184007 | 53 | 252 | 7.0 | 13.0 | 0.00 | 0.07 | 0.00 | 79 | 1018.0 |
| 20260904182504 | 53 | 243 | 7.0 | 13.0 | 0.00 | 0.07 | 0.00 | 80 | 1017.8 |
| 20260904181504 | 53 | 245 | 10.0 | 13.0 | 0.00 | 0.07 | 0.00 | 81 | 1017.8 |
| 20260904180007 | 53 | 247 | 7.0 | 12.0 | 0.00 | 0.07 | 0.00 | 80 | 1017.7 |
| 20260904174504 | 53 | 238 | 9.0 | 14.0 | 0.00 | 0.07 | 0.00 | 79 | 1017.6 |
| 20260904171504 | 54 | 241 | 9.0 | 17.0 | 0.00 | 0.07 | 0.00 | 81 | 1017.4 |
| 20260904171005 | 54 | 253 | 7.0 | 14.0 | 0.00 | 0.07 | 0.00 | 81 | 1017.4 |
| 20260904163008 | 54 | 241 | 13.0 | 24.0 | 0.00 | 0.07 | 0.00 | 86 | 1016.9 |
| 20260904162506 | 54 | 242 | 10.0 | 17.0 | 0.00 | 0.07 | 0.00 | 86 | 1017.0 |
| 20260904162006 | 54 | 239 | 10.0 | 17.0 | 0.00 | 0.07 | 0.00 | 86 | 1016.7 |
| 20260904161507 | 54 | 246 | 7.0 | 13.0 | 0.00 | 0.07 | 0.00 | 86 | 1016.8 |
| 20260904160507 | 54 | 247 | 10.0 | 17.0 | 0.00 | 0.07 | 0.00 | 85 | 1016.5 |
| 20260904155007 | 54 | 243 | 11.0 | 17.0 | 0.00 | 0.07 | 0.00 | 85 | 1016.4 |
| 20260904153007 | 54 | 232 | 9.0 | 15.0 | 0.00 | 0.07 | 0.00 | 84 | 1016.3 |
| 20260904151506 | 54 | 243 | 12.0 | 18.0 | 0.00 | 0.07 | 0.00 | 86 | 1016.2 |
| 20260904151006 | 54 | 226 | 10.0 | 15.0 | 0.00 | 0.07 | 0.00 | 87 | 1016.2 |
| 20260904144007 | 55 | 237 | 13.0 | 20.0 | 0.00 | 0.07 | 0.00 | 90 | 1016.3 |
| 20260904142506 | 55 | 249 | 14.0 | 23.0 | 0.00 | 0.07 | 0.00 | 88 | 1016.3 |
| 20260904142006 | 55 | 250 | 13.0 | 22.0 | 0.00 | 0.07 | 0.00 | 87 | 1016.2 |
| 20260904134506 | 55 | 251 | 11.0 | 22.0 | 0.00 | 0.07 | 0.00 | 88 | 1016.2 |
| 20260904134008 | 55 | 253 | 12.0 | 24.0 | 0.00 | 0.07 | 0.00 | 88 | 1016.1 |
| 20260904133506 | 55 | 241 | 16.0 | 24.0 | 0.00 | 0.07 | 0.00 | 88 | 1016.2 |
| 20260904133006 | 55 | 249 | 12.0 | 20.0 | 0.00 | 0.07 | 0.00 | 87 | 1016.1 |
| 20260904132507 | 55 | 249 | 13.0 | 24.0 | 0.00 | 0.07 | 0.00 | 87 | 1015.9 |
| 20260904132007 | 55 | 246 | 15.0 | 23.0 | 0.00 | 0.07 | 0.00 | 87 | 1015.9 |
| 20260904131505 | 55 | 253 | 11.0 | 21.0 | 0.00 | 0.07 | 0.00 | 88 | 1015.8 |
| 20260904125507 | 55 | 247 | 13.0 | 21.0 | 0.00 | 0.07 | 0.00 | 88 | 1015.6 |
| 20260904124506 | 55 | 260 | 12.0 | 22.0 | 0.00 | 0.07 | 0.00 | 87 | 1015.5 |
| 20260904122006 | 54 | 251 | 14.0 | 22.0 | 0.00 | 0.07 | 0.00 | 86 | 1015.3 |
| 20260904121506 | 54 | 251 | 17.0 | 26.0 | 0.00 | 0.07 | 0.00 | 87 | 1015.1 |
| 20260904121006 | 54 | 249 | 13.0 | 25.0 | 0.00 | 0.07 | 0.00 | 87 | 1015.2 |
| 20260904120006 | 54 | 251 | 14.0 | 21.0 | 0.00 | 0.07 | 0.00 | 87 | 1015.4 |
| 20260904115008 | 55 | 249 | 13.0 | 23.0 | 0.00 | 0.07 | 0.07 | 86 | 1015.4 |
| 20260904114506 | 55 | 249 | 13.0 | 22.0 | 0.00 | 0.07 | 0.07 | 86 | 1015.5 |
| 20260904113008 | 55 | 248 | 16.0 | 23.0 | 0.00 | 0.07 | 0.07 | 87 | 1015.4 |
| 20260904112506 | 55 | 249 | 15.0 | 26.0 | 0.00 | 0.07 | 0.07 | 87 | 1015.3 |
| 20260904111507 | 55 | 250 | 15.0 | 25.0 | 0.00 | 0.07 | 0.07 | 87 | 1015.4 |
| 20260904105006 | 55 | 250 | 15.0 | 25.0 | 0.00 | 0.07 | 0.07 | 87 | 1015.3 |
| 20260904104506 | 55 | 252 | 13.0 | 21.0 | 0.00 | 0.07 | 0.07 | 87 | 1015.3 |
| 20260904102507 | 55 | 253 | 11.0 | 23.0 | 0.00 | 0.07 | 0.07 | 87 | 1015.3 |
| 20260904101007 | 55 | 243 | 17.0 | 26.0 | 0.00 | 0.07 | 0.07 | 86 | 1015.3 |
| 20260904100506 | 55 | 246 | 13.0 | 23.0 | 0.00 | 0.07 | 0.07 | 85 | 1015.1 |
| 20260904100006 | 55 | 246 | 19.0 | 29.0 | 0.00 | 0.07 | 0.07 | 85 | 1015.1 |
| 20260904095507 | 55 | 242 | 18.0 | 28.0 | 0.00 | 0.07 | 0.07 | 86 | 1015.3 |
| 20260904095005 | 55 | 243 | 13.0 | 22.0 | 0.00 | 0.07 | 0.07 | 86 | 1015.2 |
| 20260904094008 | 55 | 249 | 16.0 | 29.0 | 0.00 | 0.07 | 0.07 | 86 | 1015.2 |
| 20260904093506 | 55 | 252 | 16.0 | 26.0 | 0.00 | 0.07 | 0.07 | 87 | 1014.9 |
| 20260904092006 | 55 | 251 | 15.0 | 24.0 | 0.00 | 0.07 | 0.07 | 86 | 1014.5 |
| 20260904090005 | 54 | 247 | 16.0 | 31.0 | 0.00 | 0.07 | 0.07 | 86 | 1014.2 |
| 20260904085508 | 54 | 245 | 19.0 | 25.0 | 0.00 | 0.07 | 0.07 | 87 | 1014.1 |
| 20260904084506 | 55 | 250 | 14.0 | 21.0 | 0.00 | 0.07 | 0.07 | 88 | 1014.1 |
| 20260904082006 | 55 | 244 | 20.0 | 32.0 | 0.00 | 0.07 | 0.07 | 87 | 1014.0 |
| 20260904081506 | 55 | 253 | 16.0 | 30.0 | 0.00 | 0.07 | 0.07 | 88 | 1013.8 |
| 20260904081007 | 55 | 252 | 16.0 | 23.0 | 0.00 | 0.07 | 0.07 | 88 | 1013.9 |
| 20260904073006 | 56 | 251 | 14.0 | 25.0 | 0.00 | 0.07 | 0.07 | 95 | 1013.3 |
| 20260904072507 | 56 | 248 | 18.0 | 25.0 | 0.00 | 0.07 | 0.07 | 96 | 1013.3 |
| 20260904071506 | 56 | 258 | 16.0 | 24.0 | 0.00 | 0.07 | 0.07 | 96 | 1013.1 |
| 20260904070506 | 56 | 254 | 14.0 | 22.0 | 0.00 | 0.07 | 0.07 | 96 | 1013.1 |
| 20260904065006 | 56 | 251 | 14.0 | 21.0 | 0.00 | 0.07 | 0.07 | 97 | 1012.7 |
| 20260904064505 | 56 | 260 | 12.0 | 21.0 | 0.00 | 0.07 | 0.07 | 97 | 1012.5 |